Wind_Speed
24 26 25 25 27 28 29 29 28 27 26 26 25 22 20 19 19 17 12 12 13 14 14 14 15 15 14 14 15 15 17 18 20 22 24 26 28 28 26 22 20 22 26 28 27 27 27 27 26 25 28 34 36 36 37 36 35 34 32 31 31 31 30 31 30 29 30 30 31 30 29 28 28 28 27 26 24 23 22 22 21 21 21 20 19 20 20
20 25 25 24 25 27 29 30 29 29 29 29 28 25 21 20 19 16 13 13 13 14 14 15 15 14 13 14 14 15 17 18 19 21 23 25 27 29 29 26 22 22 24 27 26 26 26 25 24 23 26 33 37 35 34 36 35 33 33 33 33 32 32 32 32 32 32 31 32 32 30 29 28 28 28 27 26 25 24 24 23 22 22 21 21 21 21
16 21 24 25 26 28 28 28 28 29 30 30 30 27 23 21 19 15 14 13 13 14 15 16 15 13 13 14 16 17 17 18 19 20 22 24 26 27 29 28 26 23 24 25 25 24 25 24 23 22 21 27 36 38 35 34 34 33 33 34 34 35 35 34 34 35 34 33 34 33 31 30 30 29 30 29 27 26 26 26 25 24 23 22 21 21 21
14 17 20 24 26 28 28 27 27 28 29 31 30 28 25 22 18 15 14 13 13 14 16 15 14 14 15 16 18 19 19 19 19 19 20 23 26 27 27 28 28 26 25 25 23 22 22 22 24 24 21 19 26 34 35 35 33 32 33 34 36 37 37 36 35 36 36 36 36 34 33 32 31 30 30 30 29 28 28 27 26 25 24 23 23 22 22
15 16 18 20 23 25 25 25 25 25 28 30 29 28 26 22 17 15 15 14 14 15 16 15 15 16 17 18 19 19 20 20 20 19 19 21 24 26 27 27 28 28 27 25 23 21 20 21 23 25 25 21 21 25 29 31 32 32 34 37 39 39 38 37 37 38 39 38 37 37 35 34 33 31 30 30 29 27 28 28 28 27 25 25 25 24 24
14 16 17 19 20 22 22 22 22 22 24 26 26 26 24 22 18 15 15 15 15 15 15 15 15 16 17 18 19 19 19 20 20 20 19 19 22 26 27 27 27 29 28 26 22 19 19 20 21 24 25 24 23 23 24 26 29 31 32 35 38 39 39 39 38 40 41 40 38 38 36 35 35 33 31 31 30 28 28 29 29 28 27 27 26 26 26
12 13 15 17 19 20 20 21 21 21 22 23 23 23 22 22 20 17 16 16 16 16 16 16 16 16 17 17 18 19 19 19 19 19 19 19 21 24 26 27 27 29 30 27 23 19 17 17 19 21 22 23 24 25 26 28 30 31 33 34 35 37 41 43 43 42 42 40 39 38 37 37 38 34 31 32 31 29 30 31 30 30 29 29 28 27 26
11 11 13 15 17 18 19 20 21 21 22 22 20 19 19 20 20 18 16 16 16 16 17 16 16 16 16 17 18 19 19 18 18 19 20 19 20 23 25 25 26 28 31 30 25 20 17 16 16 18 20 22 23 24 26 28 31 32 34 36 38 39 40 43 45 46 44 41 40 40 40 39 38 34 32 33 33 32 31 31 30 30 30 31 30 28 28
13 14 15 16 18 18 18 18 19 19 20 20 17 15 16 18 18 18 18 17 17 17 17 16 16 15 16 17 18 19 19 18 17 18 19 19 19 21 23 23 25 27 30 31 27 22 18 16 16 17 19 21 24 25 25 26 27 28 29 32 37 40 41 41 44 49 49 45 42 42 41 39 36 33 33 34 35 33 32 32 31 32 32 32 32 30 29
16 16 17 17 18 19 19 18 19 19 18 17 15 14 15 17 18 19 20 19 18 17 16 16 16 16 16 17 18 19 19 18 17 17 17 17 17 19 20 22 23 25 28 29 27 22 18 16 16 17 18 21 24 26 25 24 24 25 27 28 31 35 37 36 36 40 44 45 44 44 42 40 37 35 33 34 35 34 33 33 34 35 35 34 32 30 29
18 18 18 19 19 19 19 19 20 20 18 16 15 13 14 17 18 19 19 19 18 17 16 16 16 17 17 18 18 19 19 18 16 15 15 16 16 16 18 19 20 23 25 26 23 19 16 15 15 16 19 22 24 25 24 23 21 21 23 24 26 30 33 32 29 31 35 40 43 45 46 45 44 41 39 38 38 37 37 36 36 36 36 35 34 31 30
21 20 20 20 19 19 18 19 20 20 18 17 15 14 14 17 19 20 20 19 18 17 16 16 16 17 18 18 18 18 18 18 16 14 14 15 15 15 16 18 18 20 22 21 19 17 14 14 15 16 19 22 21 20 21 22 21 19 19 19 21 24 27 28 28 28 29 33 37 41 45 47 46 44 43 42 42 41 40 38 38 37 37 36 36 35 33
24 23 23 23 22 20 19 19 20 20 18 15 14 14 16 17 19 20 20 20 19 17 16 16 16 17 18 18 17 17 17 16 14 13 13 14 16 16 17 18 18 18 18 17 15 14 13 14 15 17 19 20 19 16 15 16 15 16 18 19 20 21 24 26 27 27 26 28 31 35 40 44 44 43 43 42 41 40 39 38 38 38 39 40 39 38 36
27 26 26 25 24 22 21 22 22 20 17 14 13 15 17 18 19 19 18 17 16 16 15 15 16 18 18 17 16 16 16 14 13 13 13 14 17 17 17 17 18 17 16 15 14 13 13 14 15 17 18 20 18 15 13 12 10 9 12 15 16 19 23 26 28 28 28 28 28 30 34 38 39 39 38 37 36 36 36 36 37 37 38 39 38 37 35
31 29 28 27 26 24 23 23 23 21 17 15 15 16 17 18 18 17 16 15 14 13 14 15 17 18 17 17 17 17 16 14 13 13 13 15 18 18 16 15 15 15 16 16 15 14 14 14 14 15 16 17 16 14 13 12 11 11 11 12 13 13 14 18 21 22 24 26 26 27 30 32 32 32 31 31 32 33 32 32 33 34 34 35 35 34 33
34 33 31 28 26 26 24 23 23 21 17 15 16 16 16 16 16 16 14 13 13 13 14 15 17 18 18 17 17 18 17 15 13 13 14 15 18 19 17 15 14 14 14 15 14 14 15 15 14 14 14 14 13 12 12 11 11 12 12 13 13 11 8 9 12 10 11 16 21 24 26 27 26 25 25 24 24 25 27 28 29 30 31 33 33 33 32
36 34 32 30 28 27 26 23 22 19 16 16 16 17 18 18 17 15 14 13 13 14 15 15 16 17 17 17 17 17 17 15 13 13 13 14 17 19 18 17 16 15 14 14 14 15 16 16 16 15 14 13 11 11 10 8 8 8 8 10 12 11 10 11 13 12 8 10 15 18 20 21 20 20 20 19 18 18 21 24 24 25 26 28 30 30 30
36 34 32 31 31 30 27 24 22 19 17 17 17 18 19 19 18 17 15 15 15 15 15 15 16 16 16 16 17 17 17 15 13 12 12 13 16 19 18 17 16 16 16 16 15 16 16 17 17 17 15 13 12 11 9 8 7 7 7 8 10 11 12 13 15 14 12 11 12 14 16 16 16 15 16 18 18 18 19 21 22 23 24 25 26 26 27
36 34 33 32 32 31 29 25 23 21 19 18 19 19 19 19 19 18 17 16 16 15 15 15 15 15 16 16 17 17 17 15 12 12 13 14 16 19 19 18 18 17 18 18 17 18 18 18 18 18 16 14 13 12 11 10 9 8 8 8 8 9 11 11 11 11 11 10 10 11 12 13 13 13 14 16 17 18 19 20 22 23 24 24 24 24 24
36 34 32 30 31 31 29 27 24 22 20 20 20 20 19 19 18 18 17 16 15 14 13 14 15 15 15 16 16 16 16 14 12 12 14 15 16 16 17 19 21 19 18 19 19 19 18 18 18 18 17 15 13 12 10 9 9 8 7 6 6 6 7 8 8 8 8 8 8 9 10 11 12 12 13 14 16 17 18 19 20 21 22 23 23 23 23
34 31 30 29 29 29 28 26 24 23 22 21 19 18 17 16 15 15 15 14 13 12 12 13 14 15 15 15 16 15 13 12 11 12 15 16 16 14 13 17 22 21 19 20 20 19 19 19 18 18 16 15 13 11 9 8 7 7 6 5 5 6 6 6 7 7 7 7 7 8 9 10 11 11 13 14 15 16 18 19 20 20 21 22 22 23 23
31 28 27 28 27 26 26 25 23 21 20 18 17 16 15 14 13 12 12 12 11 11 12 13 14 14 15 15 14 13 11 11 10 12 14 16 17 16 14 15 19 21 21 21 21 21 21 20 20 19 17 16 14 12 11 10 8 7 7 8 8 9 9 9 9 9 9 9 9 9 10 11 11 12 13 14 15 16 16 17 18 19 20 21 22 23 23
28 27 27 26 25 25 25 23 21 19 19 18 16 15 15 15 14 13 12 12 12 12 12 13 13 14 15 14 12 11 11 11 10 12 14 16 17 18 17 16 16 18 21 22 22 22 22 22 20 19 18 17 16 15 13 12 11 10 10 10 11 11 11 12 12 12 12 11 11 12 12 12 13 14 14 15 15 15 16 17 18 18 19 20 21 21 22
27 27 27 25 24 24 24 23 22 21 20 19 17 16 16 15 15 15 14 13 14 14 14 14 14 14 14 14 11 10 10 10 11 13 14 16 16 17 17 18 17 17 20 22 23 22 22 21 20 20 20 19 18 17 16 15 14 13 12 12 13 13 14 14 14 13 13 13 13 13 13 14 14 14 15 15 15 16 16 17 17 18 19 19 20 20 21
28 27 26 25 23 23 23 23 23 23 21 19 18 17 17 16 16 16 16 15 14 14 14 14 14 14 14 13 12 10 10 10 11 13 15 16 15 15 15 17 18 18 19 20 21 22 22 21 21 21 21 21 20 19 18 16 15 14 14 14 15 15 15 15 15 14 14 14 14 14 14 14 14 14 14 14 15 15 15 16 17 17 18 18 19 20 20
28 27 26 24 22 22 22 22 22 21 20 19 19 19 18 18 17 16 16 15 15 15 14 14 14 14 13 13 12 11 11 11 11 12 13 14 15 16 16 17 18 19 19 18 19 21 22 23 22 22 22 23 23 22 20 18 17 16 15 16 16 16 16 16 16 16 15 14 14 14 14 14 14 13 13 13 14 14 15 15 16 17 18 18 19 20 21
27 27 26 24 22 21 21 21 21 21 20 19 18 17 17 16 15 15 14 15 15 15 15 15 14 14 13 12 11 11 11 11 11 11 11 12 14 16 18 18 18 19 18 18 19 21 23 24 24 23 23 23 24 23 22 21 19 18 17 17 17 17 17 17 16 16 15 15 15 14 14 14 13 13 13 13 14 15 15 16 17 17 18 19 19 20 21
27 27 27 26 25 25 24 22 22 22 20 18 17 16 16 15 15 14 14 14 15 15 15 15 14 14 13 12 10 10 9 9 9 9 10 11 13 15 17 18 18 18 18 19 19 20 21 22 23 23 23 22 23 23 23 22 20 19 18 17 17 16 16 16 16 16 15 15 15 15 14 14 14 14 14 14 14 15 16 17 18 18 19 20 21 22 23
29 29 30 30 30 28 25 23 22 21 19 17 16 16 16 15 14 14 14 13 14 14 15 15 14 13 12 11 10 9 8 8 8 8 9 10 12 13 15 16 17 17 18 20 20 20 19 18 18 19 19 19 21 22 22 21 20 19 17 16 15 15 15 15 15 15 15 15 14 14 14 15 15 15 15 15 16 16 17 18 19 20 21 22 24 25 25
31 32 32 31 30 28 25 23 22 19 17 17 17 16 15 14 14 14 14 13 13 14 15 15 13 12 12 11 9 8 8 8 8 9 9 10 11 12 12 13 15 18 18 18 20 21 20 19 18 18 18 19 20 20 20 19 17 16 15 15 15 15 15 15 15 15 15 15 14 14 14 14 14 15 15 16 17 18 19 20 22 23 23 24 25 26 26
32 32 31 30 29 27 26 24 22 19 18 18 18 17 16 16 15 14 13 13 13 14 15 14 13 11 11 11 10 8 8 9 9 9 10 10 11 12 10 9 12 18 20 17 17 19 21 20 20 20 19 19 19 19 17 16 15 14 14 14 15 15 15 14 15 15 15 15 15 14 14 14 15 15 17 18 19 20 21 23 24 25 25 26 26 27 27
31 30 29 28 27 27 26 25 24 22 21 20 20 19 17 16 15 14 12 12 13 14 15 14 13 12 11 10 9 8 8 9 10 10 10 10 10 10 9 6 7 12 14 13 12 14 15 16 18 19 19 20 20 18 16 15 15 15 15 14 13 14 14 14 14 15 15 15 15 14 15 15 16 17 18 19 21 22 23 24 25 26 26 27 27 28 29
29 28 27 27 27 27 27 27 26 26 24 22 22 20 18 17 17 15 13 12 13 14 15 14 14 12 11 11 10 9 9 9 10 11 11 11 10 9 9 8 6 7 8 8 9 10 11 12 14 16 19 19 18 17 16 16 16 15 13 12 12 13 14 14 14 14 15 15 15 15 16 17 18 19 20 21 22 23 24 24 25 26 26 27 27 28 29
27 27 28 29 29 29 29 29 28 26 25 24 23 21 19 18 17 15 13 13 13 14 15 15 14 13 12 12 12 11 10 10 10 11 12 12 12 11 10 8 7 7 8 8 9 9 9 10 11 13 16 18 17 16 15 14 13 12 12 12 12 13 14 14 15 15 15 15 16 17 18 19 19 20 21 22 23 23 23 24 25 25 26 27 28 28 29
28 29 30 30 30 31 30 29 27 25 24 24 23 22 20 19 17 15 14 14 13 13 14 15 15 14 13 13 13 13 12 11 11 11 12 12 12 11 9 8 8 9 9 9 9 9 9 9 9 9 11 13 14 14 13 12 11 12 13 13 14 15 16 16 17 17 17 17 18 19 20 20 21 22 22 23 23 23 24 25 25 26 27 28 29 30 30
28 29 29 29 29 29 29 27 26 24 23 23 23 22 21 19 17 16 15 14 13 13 14 16 16 15 14 13 13 13 12 12 12 11 11 12 12 10 9 9 9 9 9 10 10 11 11 10 9 8 8 8 9 9 9 10 11 13 15 16 17 17 18 18 19 19 19 20 20 21 22 22 22 23 23 23 23 24 25 26 27 28 29 30 31 31 32
27 28 28 27 27 27 26 26 25 24 23 23 23 22 22 20 19 17 16 14 14 14 15 16 16 15 14 13 13 12 13 13 12 11 11 11 11 11 10 9 9 9 9 10 11 11 11 10 9 7 7 8 9 9 10 12 14 16 17 18 19 20 20 20 21 21 21 21 22 22 23 23 23 23 24 24 25 26 28 29 30 31 32 33 34 34 35
25 26 27 27 27 26 24 24 24 24 23 23 23 22 21 20 19 17 16 15 14 14 15 15 15 15 14 13 13 13 13 13 13 12 12 12 11 11 11 10 10 10 11 12 12 11 10 9 8 7 8 10 10 11 13 14 15 17 18 19 20 21 21 22 22 23 23 23 24 24 24 24 24 25 26 27 28 29 30 31 33 34 35 36 37 38 38
22 24 26 27 27 25 23 23 24 24 24 23 22 21 20 19 18 17 17 15 14 14 15 15 16 16 15 15 15 15 14 13 13 14 13 13 13 13 12 12 11 12 12 13 13 12 10 9 9 9 10 11 12 13 14 15 16 18 19 20 20 21 22 23 23 24 25 26 26 26 26 27 27 28 29 30 31 32 33 35 36 37 38 39 40 41 41
20 22 23 24 24 23 22 22 23 24 24 23 21 20 18 17 18 18 17 16 15 15 15 15 17 18 18 18 18 16 14 13 14 15 15 15 16 16 15 14 14 14 14 14 14 13 12 11 11 12 13 13 14 15 16 17 18 19 20 21 22 22 23 24 25 26 27 28 28 29 29 29 30 31 32 33 34 35 36 37 38 39 40 41 42 43 44
20 21 23 23 23 23 22 23 23 24 23 22 21 20 18 17 18 19 18 18 18 17 16 16 17 19 20 20 19 17 15 14 15 17 17 18 18 18 18 18 17 17 17 17 17 15 14 14 14 15 15 16 17 18 19 20 20 21 21 22 23 24 25 26 27 28 29 29 30 30 31 32 33 34 35 37 38 38 39 40 41 41 42 43 44 45 46
19 21 23 23 23 23 23 23 23 23 22 22 22 21 19 18 19 19 20 19 19 18 17 17 18 20 21 21 20 18 17 16 17 18 19 19 20 20 20 20 20 20 20 20 19 18 17 17 17 18 18 18 19 20 21 22 22 23 23 24 24 24 25 26 27 28 29 29 30 31 32 33 35 36 37 39 40 41 41 42 42 43 43 44 45 46 47
19 21 22 23 23 23 23 24 24 23 23 23 23 22 20 19 19 19 19 19 19 19 18 18 18 20 22 22 21 20 20 19 19 19 20 20 20 20 21 21 22 23 23 22 21 20 19 20 20 20 21 21 22 22 23 24 24 24 25 25 25 26 27 28 28 29 29 30 31 32 33 35 36 37 38 39 40 41 42 43 43 44 45 46 46 47 47
20 20 21 22 22 22 23 23 23 24 24 24 24 23 21 19 19 18 19 19 19 18 18 17 18 20 22 23 23 23 23 22 21 21 21 22 22 22 22 23 24 24 25 24 22 22 22 23 23 23 23 24 24 24 25 25 25 25 26 26 27 27 28 29 29 30 30 31 32 34 35 36 37 38 39 40 40 41 42 43 44 44 45 45 46 46 46
21 21 22 22 22 22 22 23 24 25 26 25 25 23 22 20 20 21 21 20 19 18 17 17 19 21 23 24 25 26 25 23 22 21 22 22 23 23 23 24 25 25 26 25 24 24 25 25 25 25 25 25 25 25 25 25 25 26 27 27 28 28 29 29 30 31 32 33 34 35 36 37 37 38 39 40 41 42 42 43 43 44 44 45 45 45 45
21 22 23 23 23 23 24 26 27 27 27 25 24 23 22 21 22 22 22 20 19 19 19 19 20 21 22 24 26 26 25 24 23 23 22 22 22 23 24 25 26 26 26 26 25 25 26 26 25 24 24 24 24 25 25 25 26 27 28 28 29 29 29 30 31 32 33 34 35 35 36 36 37 38 39 40 40 41 41 42 43 43 44 44 44 44 44
20 21 23 23 23 24 25 26 26 26 25 23 22 22 22 22 23 23 23 21 20 19 19 20 20 20 21 22 24 26 26 26 25 24 23 23 23 23 24 25 25 25 25 25 24 24 23 23 22 22 23 24 25 25 26 27 27 28 29 29 29 30 30 31 32 33 34 34 34 35 35 36 37 38 38 39 39 40 41 42 43 43 43 43 43 43 43
18 20 22 23 24 24 24 25 25 24 23 21 20 20 21 21 22 23 23 22 21 20 20 20 20 20 19 20 22 24 26 27 26 25 24 23 23 23 23 23 23 22 22 21 21 21 21 21 22 22 24 25 26 27 27 28 28 29 29 29 30 30 31 32 33 33 33 33 34 34 35 36 36 37 37 38 39 40 41 42 42 43 43 43 43 42 42
16 18 20 21 22 23 23 24 24 23 23 23 22 22 22 22 22 22 22 22 21 21 22 21 21 20 19 20 22 24 25 26 26 26 25 24 23 22 22 21 21 20 20 20 20 20 21 22 23 24 25 26 27 28 28 28 28 29 29 29 30 31 31 32 32 32 33 33 34 34 34 35 35 36 37 38 39 39 40 41 41 42 42 42 41 41 41
15 16 18 20 21 23 24 25 25 25 25 25 24 23 23 23 23 23 23 22 22 23 24 23 21 20 20 21 23 24 25 26 27 26 25 24 23 22 21 21 21 21 21 21 21 21 22 23 24 25 26 27 27 28 28 28 29 29 29 30 30 31 31 31 32 32 33 33 33 33 34 35 35 36 37 38 38 39 40 40 40 40 40 40 40 40 40
15 16 17 18 20 22 24 25 25 25 25 25 24 23 22 22 23 24 24 23 23 24 24 23 21 20 21 22 23 24 25 26 27 27 26 25 24 24 24 24 23 23 22 22 22 23 24 25 26 26 27 27 27 28 28 28 29 29 29 30 30 31 31 32 32 32 32 32 32 33 34 35 36 36 37 37 38 38 39 39 39 39 39 39 39 39 39
18 18 18 18 19 20 21 22 22 22 22 22 22 22 22 23 24 25 25 24 23 22 21 21 22 23 24 24 25 25 26 26 27 27 26 25 25 25 25 25 24 24 24 24 25 25 25 26 26 26 27 27 28 28 28 29 29 29 29 30 31 31 32 32 32 32 31 31 32 33 34 35 35 36 36 36 37 37 37 37 37 38 38 38 38 38 37
Wind_Direction
231 236 240 245 250 254 258 263 268 273 278 284 290 299 308 306 301 297 285 270 272 276 278 278 276 275 277 280 281 277 270 262 255 251 248 248 250 253 255 257 254 248 245 246 248 248 250 252 254 254 243 229 219 214 216 218 220 225 231 231 229 229 231 230 230 232 234 234 234 232 231 234 238 239 237 235 234 236 237 239 238 238 238 238 239 240 242
232 236 241 244 249 253 256 258 263 268 272 278 284 293 303 306 300 291 276 270 276 280 281 280 279 282 285 288 289 286 280 272 264 257 251 248 249 251 253 253 253 251 248 247 249 250 251 252 252 252 246 231 221 218 220 223 224 226 231 234 232 231 233 232 230 232 233 234 237 236 233 232 235 238 239 237 236 236 236 238 237 236 237 238 240 242 243
234 233 238 244 249 254 258 260 263 266 269 274 280 289 299 304 300 287 274 272 275 278 280 281 284 289 292 295 295 292 287 280 271 261 254 249 248 249 250 250 249 250 249 249 250 251 253 254 251 250 247 232 222 220 224 229 229 227 229 233 234 234 236 235 233 233 232 233 235 236 236 234 233 235 238 238 236 235 235 236 237 238 238 240 242 244 246
245 239 237 239 244 250 256 261 264 267 270 273 279 286 294 299 297 285 275 275 277 281 284 286 290 296 299 302 302 299 294 287 277 268 256 249 247 247 247 246 245 246 248 249 249 249 250 252 251 249 247 236 224 223 227 230 230 228 228 231 234 235 237 237 238 237 236 235 234 232 232 234 233 234 239 240 238 236 236 236 235 236 237 239 241 241 244
249 249 246 243 243 245 249 254 260 264 268 272 277 282 288 294 291 281 277 280 283 285 287 289 294 300 303 305 306 305 300 292 283 274 262 249 245 245 245 244 242 241 244 246 247 246 244 244 246 247 248 245 235 228 228 229 230 231 232 231 232 234 236 236 237 236 236 237 237 232 231 234 235 234 236 239 236 235 239 240 239 237 236 238 239 240 244
251 249 248 250 251 251 254 258 261 264 266 271 276 279 285 290 286 277 274 278 281 283 285 290 296 301 304 306 307 307 303 296 284 274 265 253 245 243 243 242 240 239 240 242 243 244 245 243 243 244 245 246 243 238 234 231 230 232 234 234 234 235 236 236 236 235 235 237 238 236 234 236 236 233 231 234 234 233 237 240 241 241 239 240 241 242 245
259 253 248 250 252 254 259 265 267 268 267 268 272 276 282 285 283 278 276 276 278 281 284 291 297 299 302 306 309 309 305 299 286 272 263 256 249 244 242 240 239 238 238 239 240 242 245 247 245 245 245 245 244 242 241 241 241 241 241 240 239 237 237 237 236 236 238 238 237 237 235 235 236 232 229 231 234 235 234 235 237 240 242 244 244 244 246
265 266 264 263 260 258 261 265 267 269 269 269 274 280 283 281 279 279 279 277 277 279 283 290 295 298 303 309 311 310 308 302 289 270 259 255 251 247 243 240 239 238 238 240 241 241 243 246 248 247 246 245 243 243 244 245 246 248 250 248 244 241 239 237 236 236 237 236 235 234 234 234 234 232 228 229 233 234 233 233 235 239 242 245 247 245 246
268 274 275 276 275 274 273 272 271 271 272 275 279 281 277 271 268 269 270 271 274 277 283 290 293 298 307 311 310 310 309 304 292 272 257 251 250 248 244 241 240 238 238 240 241 242 243 246 248 248 247 247 245 244 245 245 243 245 249 251 249 244 238 236 236 236 236 234 232 232 234 234 232 228 227 228 230 231 232 234 236 238 242 247 250 250 250
271 275 277 279 281 282 283 281 278 278 279 279 279 276 272 267 263 262 264 267 271 276 283 289 292 297 303 307 307 309 311 307 293 274 257 249 247 247 244 241 240 238 237 238 239 241 243 244 246 246 246 245 242 240 240 242 241 242 246 252 253 246 239 237 236 235 235 236 233 231 232 233 232 230 229 230 231 232 235 239 241 244 247 251 253 253 254
271 276 279 281 284 285 282 279 280 283 285 286 287 286 278 272 267 263 263 264 267 274 282 287 289 292 298 303 306 308 310 307 294 274 255 243 241 243 240 237 237 236 234 234 234 235 238 240 240 239 238 238 240 241 242 243 245 243 243 247 249 243 238 239 240 238 238 237 233 230 230 231 234 237 237 236 237 239 242 245 246 248 250 253 254 254 255
271 278 283 286 288 286 278 275 278 282 284 288 293 292 282 276 272 268 264 264 267 274 281 284 286 291 296 301 305 307 308 305 294 276 254 239 236 238 235 230 230 231 229 227 227 227 229 230 232 234 235 235 238 243 245 246 245 241 240 246 251 247 241 241 242 242 238 232 229 231 234 235 237 239 240 240 242 245 247 248 248 248 250 253 255 256 256
272 277 283 286 288 285 277 273 275 279 283 289 294 288 278 272 270 267 266 266 269 272 276 281 285 291 297 301 306 309 309 303 290 276 259 243 235 234 230 221 217 218 219 217 216 215 214 215 219 222 226 228 229 230 234 241 243 240 242 250 254 250 245 242 244 246 243 237 235 236 236 235 236 238 240 242 245 248 249 249 249 250 253 256 258 258 258
269 272 278 282 286 285 278 272 272 276 283 290 289 279 271 267 267 268 268 268 268 270 274 279 286 292 296 301 306 311 311 301 281 266 259 248 236 231 226 218 208 203 203 202 199 196 195 200 206 210 213 219 223 223 227 236 238 230 233 239 239 239 241 243 245 248 247 242 239 237 234 233 234 237 240 244 247 249 250 251 252 253 255 256 257 257 258
266 269 274 279 283 283 276 270 271 276 282 287 285 278 272 269 267 266 265 266 268 271 274 280 287 291 294 298 303 306 306 296 275 258 255 249 236 226 222 218 211 202 196 194 194 195 195 199 204 207 210 216 221 222 226 230 226 216 209 211 217 222 229 234 237 240 240 233 229 230 230 230 233 237 241 244 247 248 250 251 253 253 253 254 255 256 257
265 267 271 276 279 278 273 268 270 276 280 281 279 275 273 272 268 263 262 264 268 272 278 284 287 288 290 294 298 299 298 292 275 258 253 249 236 225 220 220 218 212 204 198 197 202 205 208 210 210 209 210 213 220 225 224 223 221 216 215 214 200 187 212 224 226 234 232 226 226 229 231 235 238 238 240 243 244 245 248 252 254 254 253 254 256 256
265 266 269 273 275 275 273 270 270 274 279 281 278 274 273 272 270 265 264 268 272 277 283 286 287 287 288 291 294 295 294 290 276 260 254 248 236 227 222 220 216 212 209 206 205 207 209 209 209 209 208 204 202 209 218 220 224 224 220 227 225 198 177 200 206 190 195 219 217 216 222 226 229 231 230 229 230 230 233 239 245 249 249 248 248 250 250
264 266 269 271 271 273 275 275 274 278 283 284 280 275 272 271 270 270 271 274 277 280 284 286 286 286 287 289 293 294 293 289 275 258 250 243 232 225 222 219 214 209 208 208 206 205 207 207 205 203 202 197 192 193 196 197 201 200 194 209 218 201 192 205 207 199 206 218 212 208 214 216 217 220 222 223 226 229 232 237 241 244 245 243 241 241 242
264 267 270 269 267 269 273 276 279 282 284 281 276 272 270 270 270 272 274 274 275 278 282 283 282 282 285 290 293 293 291 287 272 250 240 233 225 222 219 215 210 209 209 208 205 204 205 206 202 198 193 189 184 180 177 178 181 183 186 197 204 198 195 200 204 209 219 228 226 224 228 231 233 236 235 233 236 240 243 246 249 251 252 251 249 248 247
264 267 268 266 265 265 268 272 276 276 275 272 269 269 270 271 271 272 272 271 272 275 277 276 275 279 286 292 294 293 290 286 268 243 236 231 226 227 224 214 208 208 207 203 203 204 205 203 200 194 189 185 182 178 175 177 181 182 187 199 207 209 206 204 204 208 214 222 231 236 239 244 248 251 252 252 251 251 251 253 255 257 259 261 262 263 264
263 264 264 263 263 263 264 265 267 269 270 269 268 267 267 268 268 270 269 269 269 271 272 271 273 279 288 293 295 293 290 283 263 238 233 232 231 236 236 216 205 205 204 200 199 202 203 201 197 193 190 188 188 187 184 186 192 198 206 215 221 227 231 229 228 230 229 231 236 239 244 251 257 261 263 262 261 260 260 260 261 262 264 266 268 270 271
259 259 258 259 261 261 260 260 262 265 267 266 263 261 262 262 264 267 269 270 270 270 272 271 273 280 288 293 295 291 284 276 257 235 230 234 234 235 236 220 205 200 199 198 198 201 203 204 201 198 197 197 197 199 200 203 209 218 227 234 238 239 239 239 239 241 243 245 248 250 252 256 260 264 266 267 267 267 267 267 268 269 269 271 272 274 275
252 253 255 256 257 256 255 255 256 257 258 258 257 257 259 261 264 266 268 270 272 272 273 273 275 282 290 293 292 288 282 275 256 232 227 235 238 234 233 229 218 205 199 198 200 201 204 208 209 207 207 206 206 207 209 212 219 229 237 244 248 248 247 247 247 248 249 252 254 257 260 263 265 267 268 270 270 270 271 272 272 273 273 274 275 275 276
244 247 251 253 254 252 250 249 250 251 252 255 259 261 262 263 265 267 266 267 271 273 274 275 278 283 290 290 284 279 277 271 254 234 226 231 237 237 233 230 229 220 207 200 201 203 206 212 217 219 219 218 216 216 217 219 225 233 242 249 254 255 255 255 254 255 255 257 259 263 266 269 271 270 270 270 270 271 271 272 273 274 275 275 276 276 277
240 241 244 249 250 248 244 243 245 247 250 255 262 265 265 265 269 271 267 264 266 270 273 275 278 281 285 286 281 274 271 266 253 240 231 228 230 236 235 230 227 225 217 209 207 211 215 220 225 226 226 226 225 225 225 227 232 238 245 252 256 259 263 265 267 267 265 263 263 266 269 271 271 271 271 271 273 274 276 278 279 280 281 282 283 282 282
239 237 239 243 245 243 241 241 244 246 250 255 261 263 263 266 270 271 266 262 263 268 271 274 277 280 283 283 280 275 269 263 255 245 236 229 226 229 234 233 228 225 225 225 224 225 227 230 232 231 231 230 230 230 230 233 237 244 251 257 261 265 269 273 277 278 275 271 269 269 271 272 272 272 274 276 277 279 280 281 283 284 285 285 285 285 285
239 238 238 239 241 242 244 245 247 249 252 257 261 261 260 263 265 264 264 263 262 264 268 271 275 279 280 278 277 273 266 259 253 245 237 230 226 226 229 231 231 229 229 231 235 238 239 238 237 237 236 234 232 233 235 237 241 247 254 260 264 269 273 276 278 277 275 272 271 272 273 274 275 275 276 277 278 279 279 279 280 280 280 280 281 281 282
240 240 239 238 238 240 244 248 249 251 254 259 262 260 258 258 259 260 263 265 261 259 263 269 273 277 276 273 272 272 264 252 244 241 240 237 233 232 231 232 233 234 232 230 233 243 249 245 241 240 239 237 235 236 238 241 246 252 258 262 264 267 271 273 273 271 267 266 267 269 272 274 275 276 276 276 277 279 280 282 283 284 284 283 283 283 283
241 241 240 238 238 241 245 247 248 249 252 256 257 256 254 256 258 259 259 258 256 255 258 264 270 273 272 270 270 270 262 249 237 232 234 236 236 238 240 238 236 236 236 232 230 236 246 249 246 243 242 241 238 237 238 242 248 254 259 261 262 264 266 267 267 265 262 262 263 265 267 269 270 273 276 278 281 283 285 286 287 286 286 286 286 286 287
239 240 240 239 241 244 246 245 244 245 248 249 250 250 251 253 256 256 254 254 254 253 255 260 266 267 265 265 268 267 259 248 236 227 224 227 231 235 243 246 237 229 228 230 229 230 236 243 245 245 245 244 241 238 238 241 246 249 252 254 257 258 258 259 259 260 261 262 263 265 268 270 274 277 280 282 285 288 289 288 287 286 285 285 285 286 286
237 238 239 240 241 243 244 244 245 245 246 245 246 247 249 251 254 255 254 252 251 250 251 255 259 261 261 261 261 258 250 241 234 229 227 229 229 230 239 250 237 224 222 229 235 235 237 240 240 240 241 240 238 236 236 237 241 244 246 248 251 253 253 253 255 258 261 263 265 268 271 274 277 280 283 285 288 288 288 287 286 287 287 288 288 287 287
236 238 240 241 241 242 243 245 247 247 246 245 245 247 248 249 250 249 247 247 248 246 246 248 252 254 257 257 254 250 243 238 233 229 227 227 224 221 223 228 221 218 224 237 245 242 242 242 242 240 237 232 229 229 231 233 235 239 241 242 246 250 252 253 254 256 259 262 265 268 271 273 276 279 282 285 287 287 286 287 288 288 289 289 289 289 289
237 238 239 241 241 240 240 242 243 245 245 244 244 245 246 245 244 242 239 241 245 244 242 244 247 248 249 251 252 251 246 241 237 234 233 230 226 220 216 212 205 208 223 237 242 241 244 246 245 242 239 231 222 220 224 229 231 233 234 237 241 247 250 252 253 256 259 263 266 269 272 274 277 280 282 283 283 283 284 286 288 289 289 289 290 290 291
238 238 239 239 239 239 239 240 241 243 243 242 240 240 239 239 240 239 234 234 238 241 242 243 245 245 246 248 251 252 253 251 245 240 237 236 232 227 223 218 217 220 227 233 237 241 246 248 244 242 242 238 227 214 212 216 223 228 233 235 238 243 248 251 254 257 261 265 268 270 272 275 279 281 282 282 282 284 285 286 288 289 290 291 291 291 290
239 239 240 241 241 242 242 242 242 241 240 238 236 233 232 234 237 236 231 227 229 234 239 240 241 242 243 244 246 249 254 257 252 243 238 237 236 233 226 220 219 224 229 231 233 235 238 240 237 232 235 238 233 220 209 206 214 226 235 238 240 243 247 251 256 260 263 266 267 270 274 277 280 281 282 283 284 286 287 288 289 290 291 291 290 290 290
237 238 239 240 241 242 242 241 238 236 235 234 233 230 227 228 232 234 230 224 221 226 234 238 239 239 238 240 243 247 251 256 256 248 238 233 231 228 223 219 220 222 222 221 224 227 227 228 225 219 219 227 232 230 225 223 228 236 243 247 249 251 252 254 258 262 264 266 269 273 277 280 281 282 284 285 287 288 289 291 291 292 292 292 292 291 291
235 235 235 237 238 240 239 235 232 229 229 230 231 229 226 226 229 232 229 222 216 219 227 233 236 238 238 239 242 245 248 251 253 248 239 230 223 218 215 214 214 213 211 212 218 223 223 221 220 223 229 234 238 241 243 243 244 247 251 254 257 260 261 261 263 264 266 269 272 276 279 280 281 283 285 287 288 290 292 293 294 294 295 295 294 294 294
234 234 234 235 236 235 233 229 226 225 225 227 229 228 226 226 228 229 226 219 214 217 223 228 232 235 238 239 239 241 243 246 247 244 236 227 219 215 212 209 205 203 207 213 220 226 228 227 228 235 243 247 249 250 251 253 254 255 257 259 261 263 264 265 266 267 268 271 274 276 278 279 280 282 284 286 288 290 292 294 295 296 296 296 296 295 295
233 233 233 233 234 233 230 226 222 221 222 224 226 226 225 226 226 222 218 214 213 216 221 226 229 232 235 236 236 237 239 242 243 240 232 224 218 215 213 210 206 206 211 218 224 229 232 236 240 243 248 253 256 258 258 259 259 260 261 262 264 265 266 267 267 269 271 273 276 278 280 281 283 284 285 287 290 292 294 296 297 297 297 297 297 296 296
227 228 230 231 232 230 227 223 220 219 220 222 224 225 225 223 219 216 215 216 217 218 221 225 228 231 233 234 234 236 237 239 240 237 230 223 219 217 216 215 214 215 219 225 229 232 234 238 243 246 248 252 256 258 260 261 262 263 264 265 266 267 268 269 269 270 272 274 277 279 282 284 286 287 288 290 292 294 296 297 297 297 297 297 297 297 296
221 221 223 225 226 224 221 218 217 217 218 220 223 225 224 219 216 219 224 227 226 224 225 227 229 232 233 232 232 234 236 236 236 234 229 223 219 218 218 219 220 222 225 231 236 239 242 245 250 253 255 257 259 261 262 264 265 266 267 268 268 269 270 270 271 272 273 276 279 282 284 286 287 289 290 292 294 296 297 297 297 297 297 297 297 297 297
222 220 219 219 218 217 216 215 215 215 217 221 224 225 223 220 221 227 232 234 231 229 230 231 232 234 235 233 233 234 235 234 233 232 229 225 222 221 221 224 226 229 232 236 241 245 249 253 257 260 263 265 266 267 268 268 268 269 270 271 272 274 274 275 276 278 280 282 284 285 286 287 288 290 292 294 296 296 296 296 296 296 296 296 297 297 297
222 221 220 219 218 216 215 214 214 215 217 220 223 224 223 224 228 233 236 235 233 233 234 235 235 235 235 234 232 232 233 234 233 232 231 229 227 225 225 228 233 236 239 241 245 250 255 258 262 264 267 270 271 273 273 273 274 274 276 277 278 279 280 282 283 285 286 287 287 288 288 290 291 292 294 295 295 295 295 295 295 295 296 297 297 297 298
220 219 220 221 221 219 217 214 214 214 216 218 221 223 224 227 234 238 239 236 233 233 235 237 237 236 234 232 231 230 231 232 232 232 232 232 231 230 230 234 239 244 247 250 253 257 262 264 267 269 271 273 275 276 277 277 278 279 279 280 282 283 284 286 287 287 288 288 288 289 290 292 293 294 294 294 294 294 294 294 295 296 297 298 298 298 299
223 222 220 220 220 221 219 215 213 213 214 216 217 219 223 230 236 238 238 236 233 233 235 236 237 236 233 231 230 231 231 231 233 234 235 235 235 236 237 240 244 249 253 256 259 262 264 267 269 271 273 274 276 277 278 279 279 280 281 282 283 285 286 287 287 288 288 289 289 290 291 292 293 293 293 293 293 294 295 296 297 298 299 299 299 299 299
227 225 223 219 218 219 219 216 214 214 213 213 214 219 227 233 236 236 236 236 235 234 233 233 235 236 234 232 231 232 232 233 235 237 239 240 241 243 244 246 248 252 255 259 260 262 264 267 269 272 273 275 276 277 278 279 280 280 281 283 284 284 285 286 287 287 288 289 290 290 291 292 292 293 293 294 295 296 297 298 299 299 300 300 299 299 299
226 223 219 216 216 217 217 217 216 215 214 214 219 226 233 236 234 233 234 238 238 235 233 233 235 237 238 236 234 233 233 234 236 239 242 245 246 247 249 250 251 253 255 257 258 260 263 267 270 273 274 276 277 277 278 278 279 280 281 282 283 284 285 286 287 288 289 289 290 291 291 292 293 294 295 297 298 299 300 300 300 301 301 301 301 300 300
223 218 215 214 215 216 215 214 214 214 214 216 221 227 234 239 239 237 237 240 239 236 235 236 237 238 239 240 238 236 235 235 237 240 244 247 248 248 249 250 251 252 254 257 261 264 267 270 272 273 274 275 275 276 276 276 277 279 280 282 284 285 286 287 288 288 289 290 291 292 293 294 296 297 299 300 300 300 300 301 302 303 303 303 303 303 302
215 214 213 214 216 215 214 214 214 214 215 218 219 220 224 233 239 240 240 241 240 237 235 237 238 236 236 237 239 239 238 237 237 239 243 246 248 247 247 249 252 255 258 261 265 268 270 271 271 272 272 272 273 274 275 276 278 279 281 283 285 286 287 287 289 290 290 292 293 294 296 297 298 299 300 300 301 301 302 303 304 305 305 305 305 305 305
215 213 213 213 214 215 215 216 218 218 219 220 220 220 222 228 232 232 231 232 234 235 236 237 237 236 236 237 239 241 240 238 236 237 241 246 249 248 248 250 254 258 261 263 266 268 269 269 270 270 270 271 272 274 276 278 280 282 283 285 286 286 287 288 289 291 292 293 295 296 297 298 299 300 301 301 302 302 304 305 306 306 306 306 306 306 305
218 217 216 215 215 216 217 218 219 220 220 222 224 226 227 229 230 227 222 221 227 233 237 239 240 241 241 242 242 242 240 238 236 236 239 245 249 250 250 252 255 258 261 264 265 266 266 267 268 269 271 272 274 276 278 280 282 283 284 285 285 286 288 289 291 292 293 294 295 296 298 299 301 302 302 302 303 303 304 306 306 307 307 306 306 305 304
216 218 220 220 220 219 219 220 221 223 224 226 229 230 230 230 230 227 222 221 224 231 236 239 240 241 241 240 240 240 239 238 237 238 240 244 248 251 252 254 256 258 261 262 263 264 266 268 269 271 273 275 277 278 280 281 283 284 284 285 286 288 289 290 291 293 294 295 296 298 300 302 303 303 302 303 303 304 305 307 308 308 307 306 305 305 304
Height
5838 5838 5839 5839 5839 5839 5839 5839 5839 5839 5839 5839 5839 5839 5840 5839 5839 5838 5838 5838 5837 5836 5836 5835 5835 5835 5834 5833 5833 5832 5832 5831 5831 5831 5832 5832 5832 5832 5833 5834 5835 5836 5836 5837 5838 5840 5841 5842 5843 5844 5845 5847 5849 5851 5853 5855 5857 5860 5862 5864 5865 5866 5867 5869 5871 5873 5874 5875 5877 5878 5878 5880 5883 5884 5885 5886 5887 5888 5889 5890 5891 5891 5891 5892 5893 5893 5894
5836 5836 5837 5837 5837 5837 5837 5837 5837 5837 5837 5836 5836 5837 5838 5838 5837 5836 5836 5835 5835 5834 5833 5833 5832 5832 5832 5831 5830 5829 5828 5828 5828 5828 5829 5829 5829 5829 5829 5831 5832 5833 5833 5834 5835 5836 5837 5839 5841 5842 5842 5843 5846 5849 5850 5852 5854 5857 5859 5861 5862 5863 5864 5865 5867 5868 5870 5872 5874 5875 5877 5878 5880 5881 5883 5883 5884 5885 5886 5887 5888 5888 5889 5890 5891 5891 5892
5834 5835 5835 5836 5836 5835 5835 5835 5836 5836 5835 5835 5834 5835 5836 5835 5835 5834 5834 5833 5832 5832 5831 5831 5830 5830 5829 5828 5827 5826 5825 5825 5825 5825 5825 5826 5826 5826 5826 5827 5828 5830 5830 5831 5832 5833 5834 5836 5838 5839 5840 5840 5843 5846 5848 5850 5852 5854 5856 5857 5859 5860 5860 5861 5862 5863 5866 5868 5870 5872 5874 5875 5876 5878 5879 5880 5881 5881 5882 5883 5884 5886 5886 5887 5888 5889 5890
5832 5833 5833 5833 5833 5833 5833 5834 5834 5834 5834 5833 5832 5833 5833 5833 5832 5832 5831 5831 5830 5830 5829 5829 5828 5827 5827 5826 5825 5824 5823 5822 5821 5821 5822 5822 5823 5823 5823 5823 5824 5826 5827 5828 5829 5831 5831 5833 5834 5836 5837 5839 5841 5843 5845 5847 5849 5850 5851 5853 5854 5855 5856 5858 5860 5861 5863 5864 5866 5868 5870 5872 5873 5874 5876 5877 5878 5879 5879 5880 5881 5883 5884 5884 5885 5886 5887
5830 5830 5831 5831 5831 5831 5831 5831 5832 5832 5832 5831 5830 5830 5830 5830 5830 5829 5829 5828 5828 5827 5827 5826 5826 5825 5824 5824 5823 5821 5820 5819 5818 5818 5818 5819 5819 5819 5820 5820 5821 5822 5824 5825 5826 5828 5829 5830 5831 5833 5834 5837 5839 5841 5842 5844 5845 5846 5847 5848 5848 5850 5852 5855 5857 5858 5859 5860 5862 5864 5866 5868 5869 5870 5872 5873 5875 5876 5877 5878 5879 5880 5881 5881 5882 5883 5884
5828 5828 5828 5829 5829 5829 5829 5829 5830 5830 5829 5829 5828 5828 5828 5828 5827 5827 5827 5826 5826 5825 5824 5824 5824 5823 5822 5821 5820 5819 5817 5816 5815 5815 5815 5815 5815 5816 5816 5817 5818 5819 5820 5821 5822 5824 5825 5827 5828 5830 5832 5834 5836 5838 5839 5840 5842 5843 5844 5844 5845 5847 5850 5852 5854 5855 5856 5857 5858 5860 5863 5864 5864 5865 5867 5869 5870 5873 5874 5874 5875 5877 5878 5879 5879 5880 5881
5826 5826 5827 5827 5827 5827 5827 5827 5828 5828 5828 5827 5826 5826 5825 5824 5824 5824 5824 5824 5823 5823 5822 5822 5821 5820 5819 5819 5818 5816 5814 5813 5812 5812 5812 5812 5812 5812 5813 5814 5815 5816 5816 5818 5819 5820 5822 5823 5825 5827 5829 5831 5833 5835 5836 5837 5838 5839 5840 5840 5842 5844 5846 5847 5849 5851 5853 5854 5855 5857 5860 5860 5859 5861 5863 5865 5866 5868 5869 5869 5871 5873 5875 5876 5877 5877 5878
5824 5824 5824 5825 5825 5825 5825 5825 5825 5825 5825 5825 5824 5824 5824 5822 5822 5822 5822 5821 5821 5821 5820 5820 5819 5818 5817 5816 5815 5813 5811 5810 5809 5809 5809 5809 5810 5809 5810 5811 5812 5813 5814 5815 5816 5817 5819 5820 5821 5823 5826 5828 5830 5831 5833 5834 5834 5835 5835 5836 5838 5839 5840 5843 5845 5847 5849 5851 5852 5854 5855 5856 5857 5858 5860 5861 5863 5865 5866 5867 5868 5869 5871 5873 5873 5874 5875
5821 5821 5822 5822 5822 5822 5823 5823 5823 5823 5823 5822 5822 5823 5822 5821 5820 5820 5820 5819 5819 5819 5818 5818 5817 5816 5815 5814 5812 5810 5809 5807 5806 5806 5806 5807 5807 5807 5807 5808 5809 5810 5811 5812 5813 5814 5815 5817 5819 5821 5822 5824 5826 5827 5828 5829 5830 5830 5830 5831 5832 5833 5834 5838 5841 5841 5843 5846 5849 5849 5851 5852 5854 5855 5856 5858 5859 5861 5862 5864 5865 5867 5868 5869 5870 5871 5873
5819 5819 5819 5819 5820 5820 5820 5821 5820 5820 5820 5820 5820 5820 5819 5818 5818 5818 5818 5817 5817 5817 5816 5815 5814 5814 5813 5811 5809 5808 5806 5805 5804 5803 5804 5804 5804 5804 5805 5806 5807 5807 5808 5809 5810 5811 5813 5815 5817 5818 5820 5821 5822 5822 5823 5824 5825 5825 5825 5826 5827 5828 5829 5833 5836 5838 5840 5843 5845 5846 5847 5848 5849 5850 5852 5854 5855 5857 5859 5861 5862 5863 5865 5866 5867 5869 5870
5817 5817 5817 5817 5817 5818 5818 5818 5817 5818 5818 5817 5817 5818 5817 5816 5815 5815 5815 5815 5815 5815 5814 5813 5812 5811 5810 5809 5807 5805 5804 5803 5802 5801 5802 5802 5802 5802 5803 5803 5804 5805 5806 5806 5807 5809 5810 5812 5814 5815 5816 5817 5818 5817 5819 5821 5822 5823 5822 5822 5823 5824 5826 5830 5833 5835 5837 5839 5841 5842 5843 5844 5845 5846 5848 5851 5853 5855 5856 5857 5858 5859 5860 5861 5863 5864 5866
5814 5814 5814 5815 5815 5816 5816 5816 5815 5815 5815 5815 5815 5815 5814 5813 5813 5812 5813 5813 5813 5812 5812 5811 5810 5809 5808 5806 5805 5804 5802 5801 5800 5800 5800 5800 5800 5800 5800 5801 5802 5802 5803 5804 5805 5806 5808 5810 5811 5812 5813 5814 5815 5815 5816 5819 5820 5821 5820 5820 5821 5821 5824 5827 5830 5832 5833 5835 5837 5839 5840 5841 5843 5844 5846 5847 5849 5850 5852 5853 5854 5855 5856 5857 5858 5859 5861
5811 5812 5812 5812 5813 5814 5814 5814 5814 5814 5814 5813 5813 5812 5811 5810 5810 5810 5810 5810 5810 5810 5809 5808 5807 5806 5805 5804 5803 5802 5800 5799 5799 5799 5799 5799 5799 5799 5798 5799 5799 5800 5801 5802 5803 5804 5806 5808 5809 5810 5812 5812 5813 5814 5815 5816 5817 5818 5819 5819 5820 5820 5821 5824 5826 5828 5830 5832 5834 5836 5837 5839 5840 5842 5843 5844 5845 5846 5847 5849 5850 5851 5851 5852 5853 5855 5856
5809 5809 5810 5810 5811 5812 5812 5812 5811 5812 5812 5811 5811 5810 5809 5808 5807 5807 5808 5808 5808 5807 5807 5806 5805 5804 5803 5802 5801 5800 5799 5798 5797 5797 5797 5797 5797 5797 5797 5797 5797 5798 5799 5800 5801 5803 5805 5806 5808 5809 5810 5810 5811 5812 5814 5814 5815 5817 5817 5817 5817 5819 5821 5822 5823 5825 5827 5828 5830 5832 5833 5835 5837 5838 5840 5841 5842 5843 5844 5845 5846 5847 5847 5848 5849 5850 5851
5806 5807 5807 5808 5808 5809 5809 5809 5808 5809 5809 5809 5808 5807 5806 5806 5805 5805 5805 5805 5805 5805 5804 5804 5803 5801 5800 5800 5799 5798 5796 5795 5795 5795 5795 5795 5796 5795 5795 5796 5796 5797 5798 5799 5800 5802 5803 5805 5806 5807 5808 5809 5810 5811 5811 5812 5814 5815 5816 5815 5815 5818 5820 5820 5820 5821 5822 5823 5825 5827 5829 5831 5833 5835 5837 5838 5839 5840 5841 5842 5842 5843 5843 5844 5845 5846 5847
5803 5804 5805 5805 5806 5805 5805 5806 5806 5807 5807 5806 5806 5805 5804 5804 5803 5803 5803 5803 5803 5802 5802 5801 5800 5799 5798 5797 5796 5795 5794 5793 5793 5793 5793 5794 5794 5794 5794 5794 5795 5796 5796 5797 5799 5800 5802 5803 5805 5806 5806 5807 5808 5809 5809 5810 5812 5813 5814 5814 5814 5817 5819 5819 5818 5819 5819 5820 5822 5823 5825 5828 5830 5832 5833 5834 5835 5836 5837 5838 5838 5839 5839 5840 5841 5842 5843
5799 5801 5802 5802 5802 5802 5802 5803 5804 5804 5804 5804 5804 5803 5802 5801 5801 5801 5801 5801 5800 5800 5800 5799 5798 5797 5796 5795 5793 5792 5791 5791 5791 5791 5792 5792 5793 5793 5793 5793 5794 5794 5795 5796 5797 5799 5800 5801 5803 5804 5805 5806 5807 5808 5808 5809 5811 5812 5813 5814 5815 5816 5816 5816 5816 5817 5817 5818 5820 5822 5823 5825 5827 5828 5830 5831 5832 5832 5833 5834 5835 5835 5836 5836 5837 5838 5839
5796 5798 5799 5799 5799 5799 5800 5800 5801 5802 5802 5802 5801 5801 5800 5799 5799 5799 5799 5798 5798 5797 5797 5796 5796 5794 5793 5792 5791 5790 5789 5789 5789 5789 5790 5790 5791 5791 5792 5792 5793 5793 5793 5794 5796 5797 5799 5800 5801 5802 5803 5804 5805 5806 5808 5809 5811 5812 5814 5814 5814 5814 5814 5814 5814 5816 5816 5816 5818 5820 5821 5823 5824 5825 5827 5828 5829 5830 5831 5832 5833 5833 5833 5834 5834 5835 5835
5793 5795 5796 5796 5796 5796 5797 5798 5799 5799 5800 5799 5798 5798 5797 5797 5797 5796 5796 5796 5795 5795 5795 5794 5793 5792 5791 5790 5788 5787 5786 5786 5787 5787 5787 5788 5789 5790 5791 5791 5792 5792 5793 5794 5795 5796 5798 5799 5801 5801 5802 5804 5804 5805 5807 5808 5809 5810 5811 5812 5812 5813 5813 5813 5814 5815 5815 5815 5817 5818 5819 5820 5822 5823 5824 5825 5827 5828 5829 5830 5830 5831 5831 5831 5832 5832 5832
5791 5792 5792 5793 5793 5793 5794 5796 5796 5797 5796 5796 5795 5795 5795 5794 5794 5794 5793 5793 5792 5792 5792 5792 5791 5790 5789 5787 5786 5785 5784 5784 5785 5785 5785 5786 5787 5788 5789 5790 5790 5792 5793 5793 5794 5796 5798 5799 5800 5801 5802 5803 5804 5805 5806 5807 5808 5809 5810 5810 5811 5812 5812 5813 5814 5815 5815 5816 5816 5817 5818 5819 5820 5821 5822 5823 5824 5825 5826 5827 5827 5828 5828 5829 5829 5830 5830
5787 5789 5789 5789 5790 5791 5792 5793 5794 5793 5793 5793 5792 5792 5792 5792 5792 5791 5791 5790 5790 5790 5790 5789 5788 5788 5787 5785 5784 5783 5783 5783 5783 5784 5784 5784 5785 5786 5787 5788 5789 5791 5792 5793 5794 5796 5798 5799 5800 5801 5802 5803 5803 5804 5805 5806 5807 5808 5809 5810 5810 5811 5812 5812 5813 5814 5815 5815 5816 5816 5817 5818 5819 5820 5820 5821 5822 5822 5823 5824 5825 5825 5826 5827 5827 5828 5828
5784 5785 5785 5786 5786 5787 5788 5790 5791 5791 5790 5790 5790 5790 5790 5790 5790 5789 5788 5788 5788 5788 5787 5787 5786 5785 5785 5784 5783 5782 5782 5781 5782 5782 5783 5783 5783 5784 5786 5787 5788 5789 5791 5793 5794 5796 5797 5799 5800 5801 5802 5803 5803 5804 5805 5806 5806 5807 5808 5809 5810 5811 5811 5812 5812 5813 5814 5814 5815 5816 5816 5817 5818 5819 5819 5820 5820 5820 5820 5821 5821 5822 5823 5824 5824 5825 5825
5779 5780 5781 5782 5783 5784 5785 5787 5788 5788 5788 5788 5788 5788 5788 5788 5787 5787 5786 5786 5785 5785 5785 5785 5784 5783 5783 5782 5782 5781 5780 5780 5780 5781 5781 5782 5782 5783 5784 5786 5787 5788 5790 5791 5793 5795 5797 5798 5800 5801 5802 5802 5803 5804 5805 5805 5806 5807 5808 5809 5809 5810 5811 5811 5812 5813 5813 5814 5814 5815 5816 5816 5817 5817 5818 5818 5818 5818 5818 5818 5819 5819 5820 5820 5821 5822 5822
5776 5776 5777 5778 5780 5781 5782 5784 5784 5785 5785 5785 5786 5786 5786 5785 5785 5785 5784 5783 5783 5783 5783 5782 5782 5782 5781 5780 5780 5780 5779 5778 5778 5779 5780 5780 5781 5782 5783 5784 5786 5787 5788 5790 5792 5794 5796 5797 5799 5800 5801 5802 5803 5803 5804 5805 5806 5806 5807 5808 5809 5809 5810 5811 5811 5812 5812 5813 5814 5814 5815 5815 5815 5815 5815 5816 5816 5816 5816 5816 5817 5817 5817 5818 5818 5819 5819
5772 5773 5774 5775 5777 5778 5779 5780 5781 5781 5782 5783 5783 5783 5783 5783 5783 5782 5781 5781 5780 5780 5780 5780 5780 5779 5779 5778 5778 5778 5777 5777 5777 5777 5778 5779 5780 5781 5781 5782 5784 5785 5787 5788 5790 5792 5794 5796 5797 5798 5799 5800 5801 5802 5803 5804 5805 5806 5806 5807 5808 5808 5809 5809 5810 5811 5811 5811 5812 5812 5813 5813 5813 5813 5813 5813 5814 5814 5814 5814 5814 5815 5815 5815 5816 5816 5816
5768 5769 5770 5772 5773 5775 5776 5777 5778 5779 5780 5781 5781 5781 5781 5781 5780 5780 5779 5778 5778 5778 5778 5778 5778 5777 5777 5777 5776 5775 5775 5775 5775 5775 5776 5777 5779 5779 5780 5781 5782 5783 5785 5787 5789 5791 5792 5794 5795 5796 5797 5798 5799 5800 5801 5803 5803 5804 5805 5805 5806 5807 5807 5808 5808 5808 5809 5809 5810 5810 5810 5810 5811 5811 5811 5812 5812 5812 5812 5812 5812 5812 5813 5813 5813 5813 5814
5764 5766 5767 5769 5770 5772 5773 5774 5775 5776 5777 5778 5778 5778 5778 5778 5778 5777 5776 5776 5776 5776 5776 5776 5776 5775 5775 5775 5774 5774 5774 5773 5773 5774 5774 5776 5777 5777 5778 5779 5779 5781 5783 5785 5786 5788 5789 5791 5792 5793 5794 5795 5797 5798 5799 5800 5802 5803 5803 5804 5804 5805 5806 5806 5806 5807 5807 5807 5807 5808 5808 5808 5809 5809 5810 5810 5809 5809 5809 5810 5810 5810 5810 5811 5811 5811 5810
5761 5762 5763 5765 5767 5768 5770 5771 5772 5773 5774 5774 5775 5775 5775 5775 5775 5775 5774 5774 5774 5774 5774 5774 5774 5774 5773 5773 5773 5773 5772 5772 5773 5773 5774 5775 5775 5776 5777 5777 5778 5779 5781 5782 5784 5786 5786 5787 5789 5790 5791 5792 5794 5795 5797 5798 5799 5800 5801 5802 5803 5803 5804 5804 5804 5805 5805 5805 5806 5806 5806 5806 5807 5807 5807 5808 5807 5807 5807 5807 5807 5807 5807 5807 5807 5807 5807
5757 5758 5759 5761 5762 5764 5766 5768 5769 5770 5771 5771 5772 5773 5773 5773 5773 5773 5773 5772 5772 5772 5772 5772 5772 5772 5772 5772 5772 5772 5771 5771 5772 5773 5773 5774 5774 5775 5776 5776 5777 5778 5778 5780 5782 5784 5784 5785 5786 5788 5789 5790 5791 5793 5794 5795 5797 5798 5799 5800 5800 5801 5802 5802 5802 5803 5803 5804 5804 5805 5805 5805 5805 5805 5805 5805 5805 5805 5805 5805 5805 5805 5805 5805 5805 5804 5804
5752 5753 5754 5757 5759 5761 5763 5764 5765 5767 5768 5769 5769 5770 5770 5770 5770 5770 5771 5771 5771 5771 5771 5771 5771 5770 5770 5770 5771 5771 5771 5771 5771 5772 5772 5773 5773 5774 5775 5775 5776 5776 5777 5778 5780 5782 5783 5784 5785 5786 5787 5788 5788 5790 5791 5793 5794 5795 5796 5797 5798 5798 5799 5800 5800 5800 5801 5802 5802 5803 5803 5803 5803 5803 5803 5803 5803 5803 5803 5803 5802 5803 5803 5802 5802 5802 5802
5747 5748 5751 5753 5755 5757 5759 5760 5762 5764 5765 5766 5767 5767 5767 5767 5767 5768 5769 5769 5769 5769 5769 5769 5769 5769 5769 5769 5770 5770 5770 5770 5770 5771 5771 5772 5772 5773 5774 5774 5774 5775 5776 5777 5778 5780 5781 5782 5783 5783 5784 5785 5786 5787 5789 5790 5791 5792 5794 5794 5795 5796 5797 5797 5798 5798 5799 5799 5800 5800 5801 5801 5801 5801 5801 5801 5800 5800 5800 5800 5800 5800 5800 5800 5799 5799 5799
5743 5745 5748 5750 5752 5754 5755 5757 5759 5760 5762 5763 5764 5764 5765 5765 5765 5766 5766 5767 5767 5767 5768 5768 5767 5767 5768 5768 5768 5769 5769 5769 5769 5770 5771 5771 5772 5772 5772 5773 5773 5774 5776 5777 5778 5779 5780 5781 5781 5781 5782 5783 5783 5785 5786 5788 5789 5790 5791 5792 5793 5794 5795 5796 5796 5796 5797 5797 5798 5798 5798 5799 5799 5799 5798 5798 5798 5797 5797 5796 5796 5796 5796 5796 5796 5795 5794
5741 5744 5745 5747 5748 5750 5751 5753 5755 5756 5758 5760 5761 5762 5762 5762 5763 5763 5764 5764 5765 5765 5766 5766 5766 5766 5766 5767 5767 5767 5767 5768 5768 5769 5769 5770 5770 5771 5771 5772 5773 5774 5775 5776 5776 5777 5778 5779 5780 5781 5781 5781 5781 5782 5784 5785 5786 5788 5789 5790 5791 5792 5793 5794 5794 5795 5795 5795 5795 5796 5796 5796 5796 5796 5796 5795 5795 5794 5794 5793 5793 5793 5793 5792 5792 5791 5791
5740 5741 5742 5743 5744 5745 5747 5749 5751 5753 5755 5757 5758 5759 5760 5760 5760 5761 5761 5762 5762 5763 5764 5764 5764 5764 5765 5765 5765 5765 5765 5766 5767 5767 5767 5768 5768 5769 5770 5771 5772 5773 5774 5774 5775 5776 5776 5777 5778 5779 5780 5780 5780 5781 5782 5783 5784 5786 5787 5789 5790 5791 5791 5792 5792 5793 5793 5793 5793 5793 5793 5793 5793 5793 5792 5792 5791 5791 5791 5791 5790 5790 5789 5789 5788 5788 5787
5736 5737 5738 5739 5740 5741 5743 5745 5748 5750 5752 5754 5755 5756 5757 5758 5758 5758 5759 5759 5760 5761 5761 5762 5762 5763 5763 5763 5763 5763 5764 5764 5765 5765 5766 5766 5767 5768 5769 5770 5771 5771 5772 5773 5773 5774 5774 5775 5776 5777 5778 5779 5779 5779 5780 5781 5783 5784 5786 5787 5788 5789 5790 5790 5790 5790 5791 5791 5790 5790 5790 5790 5790 5789 5789 5789 5788 5788 5788 5787 5787 5787 5786 5785 5785 5784 5783
5731 5732 5733 5735 5736 5737 5739 5742 5745 5747 5748 5750 5751 5753 5754 5755 5755 5755 5756 5757 5758 5759 5759 5760 5760 5761 5761 5761 5761 5762 5762 5762 5763 5764 5764 5764 5765 5766 5767 5768 5770 5770 5771 5771 5771 5772 5773 5774 5775 5776 5777 5778 5778 5779 5779 5780 5782 5783 5784 5785 5786 5787 5787 5788 5788 5788 5788 5788 5788 5788 5787 5787 5787 5786 5786 5785 5785 5785 5784 5784 5783 5783 5782 5781 5781 5780 5779
5727 5728 5729 5731 5732 5734 5736 5739 5741 5743 5745 5746 5748 5750 5751 5752 5752 5753 5754 5755 5756 5756 5757 5757 5758 5759 5760 5760 5760 5760 5761 5761 5762 5762 5762 5763 5764 5764 5766 5767 5768 5769 5769 5770 5770 5771 5772 5773 5774 5775 5776 5777 5777 5778 5779 5779 5780 5781 5782 5783 5783 5784 5784 5784 5785 5785 5785 5785 5785 5785 5785 5784 5784 5783 5783 5782 5781 5781 5780 5780 5779 5778 5778 5777 5776 5775 5774
5723 5724 5726 5727 5729 5731 5733 5735 5737 5740 5742 5743 5744 5746 5748 5749 5750 5750 5751 5752 5753 5754 5754 5755 5756 5757 5758 5758 5758 5759 5759 5760 5760 5760 5761 5761 5762 5763 5764 5766 5767 5768 5768 5769 5769 5769 5770 5772 5773 5774 5775 5775 5776 5777 5778 5778 5779 5780 5780 5780 5781 5781 5781 5781 5781 5781 5781 5782 5782 5781 5781 5781 5780 5780 5779 5779 5778 5777 5777 5776 5775 5774 5773 5772 5770 5769 5768
5719 5720 5722 5723 5725 5728 5730 5732 5734 5736 5738 5740 5741 5743 5744 5746 5747 5748 5749 5750 5751 5751 5752 5753 5754 5755 5755 5756 5756 5757 5758 5759 5759 5759 5760 5760 5761 5762 5763 5764 5766 5767 5767 5767 5768 5768 5769 5771 5772 5773 5773 5774 5774 5775 5776 5776 5776 5777 5777 5777 5777 5778 5778 5778 5778 5778 5778 5778 5778 5777 5777 5777 5777 5776 5775 5775 5774 5773 5772 5771 5769 5768 5767 5766 5764 5763 5762
5716 5717 5718 5720 5722 5724 5727 5729 5731 5733 5735 5737 5738 5739 5741 5743 5744 5745 5746 5747 5748 5749 5750 5751 5752 5752 5753 5753 5754 5755 5756 5757 5757 5758 5758 5759 5759 5761 5762 5764 5765 5766 5766 5766 5766 5767 5769 5770 5770 5771 5772 5772 5773 5773 5773 5773 5774 5774 5774 5774 5774 5774 5775 5775 5775 5774 5774 5774 5774 5773 5773 5773 5772 5771 5770 5770 5769 5768 5766 5765 5764 5762 5761 5759 5758 5757 5755
5712 5713 5715 5717 5719 5721 5723 5726 5728 5730 5732 5734 5735 5736 5738 5740 5742 5743 5744 5745 5745 5746 5747 5748 5749 5749 5749 5750 5752 5753 5754 5755 5756 5756 5757 5758 5758 5760 5761 5763 5764 5764 5764 5764 5765 5766 5767 5768 5768 5769 5770 5770 5771 5771 5771 5771 5771 5771 5771 5771 5771 5772 5771 5771 5771 5771 5771 5770 5770 5770 5769 5768 5767 5766 5765 5764 5763 5762 5761 5759 5758 5756 5755 5754 5752 5750 5749
5709 5710 5712 5713 5715 5717 5720 5722 5724 5726 5729 5730 5732 5734 5736 5738 5739 5740 5741 5742 5743 5744 5744 5745 5746 5746 5747 5748 5750 5751 5752 5753 5753 5754 5755 5756 5757 5759 5760 5761 5762 5762 5763 5763 5764 5765 5766 5766 5767 5767 5767 5768 5768 5768 5768 5768 5768 5768 5768 5768 5768 5768 5768 5768 5767 5767 5767 5766 5766 5765 5764 5763 5762 5761 5760 5759 5757 5756 5755 5753 5752 5751 5750 5748 5747 5745 5742
5707 5708 5710 5711 5713 5715 5717 5719 5721 5723 5726 5728 5729 5731 5733 5735 5736 5737 5739 5740 5741 5741 5742 5742 5743 5743 5744 5745 5747 5748 5749 5750 5751 5752 5753 5754 5756 5757 5758 5759 5759 5760 5760 5761 5762 5763 5764 5764 5764 5765 5765 5765 5765 5765 5765 5765 5765 5765 5765 5765 5764 5764 5764 5763 5763 5763 5762 5762 5761 5760 5759 5758 5757 5756 5755 5754 5752 5751 5749 5748 5746 5745 5744 5743 5741 5738 5736
5704 5705 5707 5709 5711 5713 5715 5716 5718 5721 5723 5725 5727 5728 5730 5731 5733 5735 5736 5737 5738 5739 5739 5740 5740 5740 5741 5742 5744 5745 5746 5747 5749 5750 5751 5752 5754 5755 5756 5757 5757 5757 5757 5759 5760 5761 5761 5761 5761 5762 5762 5762 5762 5761 5761 5761 5761 5761 5761 5761 5760 5760 5760 5759 5759 5758 5757 5757 5756 5755 5754 5753 5752 5751 5750 5749 5747 5745 5744 5742 5741 5739 5738 5736 5734 5732 5730
5701 5703 5704 5707 5709 5711 5713 5715 5717 5718 5720 5722 5723 5725 5727 5728 5730 5731 5732 5734 5735 5736 5736 5737 5737 5737 5738 5739 5740 5741 5743 5744 5746 5747 5748 5749 5751 5752 5753 5754 5754 5754 5755 5756 5757 5758 5758 5758 5758 5758 5759 5758 5758 5758 5758 5758 5757 5757 5757 5756 5756 5756 5756 5755 5754 5754 5753 5752 5751 5750 5749 5748 5747 5746 5745 5743 5741 5740 5738 5736 5735 5733 5731 5729 5727 5725 5723
5699 5700 5702 5704 5706 5708 5710 5712 5714 5715 5716 5718 5720 5722 5724 5726 5727 5728 5729 5731 5732 5732 5733 5734 5734 5735 5735 5736 5737 5738 5740 5741 5742 5743 5745 5746 5748 5749 5750 5750 5751 5752 5753 5753 5754 5754 5754 5755 5755 5755 5755 5755 5755 5755 5754 5754 5754 5753 5753 5752 5752 5752 5752 5751 5750 5749 5748 5748 5747 5746 5745 5744 5742 5741 5739 5737 5735 5734 5732 5730 5728 5727 5725 5723 5721 5719 5717
5696 5698 5700 5702 5704 5705 5707 5709 5711 5712 5714 5716 5718 5720 5721 5723 5724 5725 5726 5727 5728 5729 5730 5731 5732 5732 5733 5734 5735 5736 5737 5738 5739 5740 5742 5743 5745 5746 5746 5747 5748 5749 5750 5750 5750 5751 5751 5751 5751 5751 5751 5751 5751 5751 5751 5750 5750 5749 5749 5749 5748 5748 5747 5747 5746 5745 5744 5743 5742 5741 5740 5738 5737 5736 5734 5732 5730 5728 5725 5723 5721 5720 5718 5716 5714 5712 5710
5694 5695 5697 5699 5701 5703 5705 5706 5708 5710 5712 5714 5716 5718 5719 5720 5721 5722 5723 5724 5725 5726 5727 5728 5729 5730 5731 5732 5733 5733 5734 5735 5736 5737 5739 5740 5742 5743 5744 5744 5745 5745 5746 5746 5747 5747 5747 5748 5748 5748 5747 5747 5747 5747 5747 5747 5746 5746 5745 5745 5744 5743 5743 5742 5741 5741 5740 5739 5737 5736 5734 5733 5731 5730 5728 5726 5724 5722 5719 5717 5715 5713 5711 5709 5707 5705 5703
5692 5693 5695 5697 5698 5700 5702 5704 5706 5708 5710 5711 5713 5715 5717 5718 5719 5719 5720 5722 5723 5724 5725 5726 5726 5727 5729 5730 5730 5731 5732 5733 5733 5734 5736 5737 5739 5740 5741 5741 5741 5742 5742 5743 5743 5744 5744 5744 5744 5744 5744 5744 5743 5743 5743 5743 5742 5742 5741 5741 5740 5739 5738 5737 5736 5736 5735 5733 5732 5731 5729 5727 5726 5724 5722 5721 5718 5716 5714 5711 5709 5707 5704 5702 5700 5698 5696
5690 5691 5693 5694 5696 5697 5699 5701 5702 5704 5706 5708 5709 5711 5713 5714 5715 5716 5717 5719 5720 5721 5722 5723 5724 5725 5726 5727 5728 5728 5729 5730 5730 5731 5733 5734 5736 5737 5738 5738 5738 5739 5739 5740 5740 5741 5741 5741 5741 5740 5740 5740 5740 5740 5739 5739 5738 5738 5737 5736 5735 5734 5733 5732 5732 5731 5729 5728 5727 5725 5724 5723 5721 5719 5717 5715 5713 5710 5708 5706 5704 5701 5699 5696 5694 5692 5690
5688 5689 5690 5691 5693 5694 5696 5697 5699 5701 5703 5704 5706 5708 5709 5711 5712 5713 5714 5715 5717 5718 5719 5720 5721 5722 5722 5724 5725 5725 5726 5727 5727 5728 5730 5731 5733 5734 5735 5735 5736 5736 5736 5737 5737 5737 5737 5737 5737 5737 5736 5736 5736 5736 5735 5735 5734 5733 5732 5731 5730 5729 5729 5728 5727 5726 5724 5723 5722 5720 5719 5718 5716 5714 5712 5709 5707 5705 5703 5701 5699 5696 5693 5691 5689 5687 5685
5686 5687 5688 5690 5691 5693 5694 5695 5697 5699 5700 5702 5704 5705 5706 5708 5709 5710 5711 5713 5714 5715 5716 5717 5718 5718 5719 5720 5721 5722 5723 5723 5724 5725 5727 5729 5730 5731 5732 5732 5733 5733 5733 5733 5733 5733 5733 5733 5733 5733 5732 5732 5732 5731 5731 5730 5729 5728 5728 5727 5726 5725 5724 5723 5722 5721 5720 5718 5717 5716 5714 5713 5711 5709 5707 5705 5702 5700 5698 5696 5694 5691 5689 5686 5684 5682 5680